{"data":{"norad_id":53691,"epoch":"2026-05-25T02:31:00.278976Z","epoch_age_seconds":63098,"freshness":"FRESH","line1":"1 53691U 22105AV  26145.10486434  .00000132  00000+0  13218-4 0  9996","line2":"2 53691  97.4507  26.1531 0002178  73.4941 286.6525 15.05652656204801","mean_motion":15.05652656,"eccentricity":0.0002178,"inclination_deg":97.4507,"raan_deg":26.1531,"arg_perigee_deg":73.4941,"mean_anomaly_deg":286.6525,"bstar":1.3218e-5,"rev_number":20480,"period_min":95.639588205263,"perigee_km":547.99416704088,"apogee_km":551.01184702794,"semimajor_km":6927.6400070344,"source":"CELESTRAK","updated_at":"2026-05-25T13:38:17.530796Z"}}